owner,sensor,date,latitude,longitude,vertical_datum,wind_speed,wind_to_direction,wind_speed_of_gust,qcFlag 
ADCP,ioos:station:wmo:42364:1,2007-12-01T00:00:00Z,29.0600,-88.0900,122.0,4.0,20.0,99.0,'11111222,11111222,11144222' 
ADCP,ioos:station:wmo:42364:1,2007-12-01T01:00:00Z,29.0600,-88.0900,122.0,9.0,60.0,99.0,'11111222,11111222,11144222' 
ADCP,ioos:station:wmo:42364:1,2007-12-01T02:00:00Z,29.0600,-88.0900,122.0,10.0,50.0,99.0,'11111222,11111222,11144222' 
ADCP,ioos:station:wmo:42364:1,2007-12-01T03:00:00Z,29.0600,-88.0900,122.0,7.0,40.0,99.0,'11111222,11111222,11144222' 
ADCP,ioos:station:wmo:42364:1,2007-12-01T04:00:00Z,29.0600,-88.0900,122.0,11.0,70.0,99.0,'11111222,11111222,11144222' 
ADCP,ioos:station:wmo:42364:1,2007-12-01T05:00:00Z,29.0600,-88.0900,122.0,7.0,60.0,99.0,'11111222,11111222,11144222' 
ADCP,ioos:station:wmo:42364:1,2007-12-01T06:00:00Z,29.0600,-88.0900,122.0,8.0,70.0,99.0,'11111222,11111222,11144222' 
ADCP,ioos:station:wmo:42364:1,2007-12-01T07:00:00Z,29.0600,-88.0900,122.0,7.0,70.0,99.0,'11111222,11111222,11144222' 
ADCP,ioos:station:wmo:42364:1,2007-12-01T08:00:00Z,29.0600,-88.0900,122.0,9.0,60.0,99.0,'11111222,11111222,11144222' 
ADCP,ioos:station:wmo:42364:1,2007-12-01T09:00:00Z,29.0600,-88.0900,122.0,8.0,70.0,99.0,'11111222,11111222,11144222' 
ADCP,ioos:station:wmo:42364:1,2007-12-01T10:00:00Z,29.0600,-88.0900,122.0,7.0,80.0,99.0,'11111222,11111222,11144222' 
ADCP,ioos:station:wmo:42364:1,2007-12-01T11:00:00Z,29.0600,-88.0900,122.0,9.0,70.0,99.0,'11111222,11111222,11144222' 
ADCP,ioos:station:wmo:42364:1,2007-12-01T12:00:00Z,29.0600,-88.0900,122.0,8.0,90.0,99.0,'11111222,11111222,11144222' 
ADCP,ioos:station:wmo:42364:1,2007-12-01T13:00:00Z,29.0600,-88.0900,122.0,6.0,110.0,99.0,'11111222,11111222,11144222' 
ADCP,ioos:station:wmo:42364:1,2007-12-01T14:00:00Z,29.0600,-88.0900,122.0,7.0,110.0,99.0,'11111222,11111222,11144222' 
ADCP,ioos:station:wmo:42364:1,2007-12-01T15:00:00Z,29.0600,-88.0900,122.0,6.0,110.0,99.0,'11111222,11111222,11144222' 
ADCP,ioos:station:wmo:42364:1,2007-12-01T16:00:00Z,29.0600,-88.0900,122.0,7.0,110.0,99.0,'11111222,11111222,11144222' 
ADCP,ioos:station:wmo:42364:1,2007-12-01T17:00:00Z,29.0600,-88.0900,122.0,8.0,120.0,99.0,'11111222,11111222,11144222' 
ADCP,ioos:station:wmo:42364:1,2007-12-01T18:00:00Z,29.0600,-88.0900,122.0,7.0,120.0,99.0,'11111222,11111222,11144222' 
ADCP,ioos:station:wmo:42364:1,2007-12-01T19:00:00Z,29.0600,-88.0900,122.0,8.0,130.0,99.0,'11111222,11111222,11144222' 
ADCP,ioos:station:wmo:42364:1,2007-12-01T20:00:00Z,29.0600,-88.0900,122.0,7.0,110.0,99.0,'11111222,11111222,11144222' 
ADCP,ioos:station:wmo:42364:1,2007-12-01T21:00:00Z,29.0600,-88.0900,122.0,7.0,110.0,99.0,'11111222,11111222,11144222' 
ADCP,ioos:station:wmo:42364:1,2007-12-01T22:00:00Z,29.0600,-88.0900,122.0,7.0,110.0,99.0,'11111222,11111222,11144222' 
ADCP,ioos:station:wmo:42364:1,2007-12-01T23:00:00Z,29.0600,-88.0900,122.0,8.0,120.0,99.0,'11111222,11111222,11144222' 
ADCP,ioos:station:wmo:42364:1,2007-12-02T00:00:00Z,29.0600,-88.0900,122.0,8.0,110.0,99.0,'11111222,11111222,11144222' 
ADCP,ioos:station:wmo:42364:1,2007-12-02T01:00:00Z,29.0600,-88.0900,122.0,8.0,110.0,99.0,'11111222,11111222,11144222' 
ADCP,ioos:station:wmo:42364:1,2007-12-02T02:00:00Z,29.0600,-88.0900,122.0,9.0,120.0,99.0,'11111222,11111222,11144222' 
ADCP,ioos:station:wmo:42364:1,2007-12-02T03:00:00Z,29.0600,-88.0900,122.0,10.0,120.0,99.0,'11111222,11111222,11144222' 
ADCP,ioos:station:wmo:42364:1,2007-12-02T04:00:00Z,29.0600,-88.0900,122.0,11.0,110.0,99.0,'11111222,11111222,11144222' 
ADCP,ioos:station:wmo:42364:1,2007-12-02T05:00:00Z,29.0600,-88.0900,122.0,11.0,120.0,99.0,'11111222,11111222,11144222' 
ADCP,ioos:station:wmo:42364:1,2007-12-02T06:00:00Z,29.0600,-88.0900,122.0,11.0,120.0,99.0,'11111222,11111222,11144222' 
ADCP,ioos:station:wmo:42364:1,2007-12-02T07:00:00Z,29.0600,-88.0900,122.0,9.0,140.0,99.0,'11111222,11111222,11144222' 
ADCP,ioos:station:wmo:42364:1,2007-12-02T08:00:00Z,29.0600,-88.0900,122.0,8.0,130.0,99.0,'11111222,11111222,11144222' 
ADCP,ioos:station:wmo:42364:1,2007-12-02T09:00:00Z,29.0600,-88.0900,122.0,8.0,160.0,99.0,'11111222,11111222,11144222' 
ADCP,ioos:station:wmo:42364:1,2007-12-02T10:00:00Z,29.0600,-88.0900,122.0,8.0,160.0,99.0,'11111222,11111222,11144222' 
ADCP,ioos:station:wmo:42364:1,2007-12-02T11:00:00Z,29.0600,-88.0900,122.0,9.0,160.0,99.0,'11111222,11111222,11144222' 
ADCP,ioos:station:wmo:42364:1,2007-12-02T12:00:00Z,29.0600,-88.0900,122.0,8.0,150.0,99.0,'11111222,11111222,11144222' 
ADCP,ioos:station:wmo:42364:1,2007-12-02T13:00:00Z,29.0600,-88.0900,122.0,7.0,150.0,99.0,'11111222,11111222,11144222' 
ADCP,ioos:station:wmo:42364:1,2007-12-02T14:00:00Z,29.0600,-88.0900,122.0,8.0,150.0,99.0,'11111222,11111222,11144222' 
ADCP,ioos:station:wmo:42364:1,2007-12-02T15:00:00Z,29.0600,-88.0900,122.0,9.0,150.0,99.0,'11111222,11111222,11144222' 
ADCP,ioos:station:wmo:42364:1,2007-12-02T16:00:00Z,29.0600,-88.0900,122.0,10.0,160.0,99.0,'11111222,11111222,11144222' 
ADCP,ioos:station:wmo:42364:1,2007-12-02T17:00:00Z,29.0600,-88.0900,122.0,8.0,160.0,99.0,'11111222,11111222,11144222' 
ADCP,ioos:station:wmo:42364:1,2007-12-02T18:00:00Z,29.0600,-88.0900,122.0,8.0,170.0,99.0,'11111222,11111222,11144222' 
ADCP,ioos:station:wmo:42364:1,2007-12-02T19:00:00Z,29.0600,-88.0900,122.0,8.0,170.0,99.0,'11111222,11111222,11144222' 
ADCP,ioos:station:wmo:42364:1,2007-12-02T20:00:00Z,29.0600,-88.0900,122.0,8.0,170.0,99.0,'11111222,11111222,11144222' 
ADCP,ioos:station:wmo:42364:1,2007-12-02T21:00:00Z,29.0600,-88.0900,122.0,7.0,180.0,99.0,'11111222,11111222,11144222' 
ADCP,ioos:station:wmo:42364:1,2007-12-02T22:00:00Z,29.0600,-88.0900,122.0,7.0,180.0,99.0,'11111222,11111222,11144222' 
ADCP,ioos:station:wmo:42364:1,2007-12-02T23:00:00Z,29.0600,-88.0900,122.0,7.0,190.0,99.0,'11111222,11111222,11144222' 
ADCP,ioos:station:wmo:42364:1,2007-12-03T00:00:00Z,29.0600,-88.0900,122.0,8.0,190.0,99.0,'11111222,11111222,11144222' 
ADCP,ioos:station:wmo:42364:1,2007-12-03T01:00:00Z,29.0600,-88.0900,122.0,8.0,210.0,99.0,'11111222,11111222,11144222' 
ADCP,ioos:station:wmo:42364:1,2007-12-03T02:00:00Z,29.0600,-88.0900,122.0,7.0,230.0,99.0,'11111222,11111222,11144222' 
ADCP,ioos:station:wmo:42364:1,2007-12-03T03:00:00Z,29.0600,-88.0900,122.0,5.0,240.0,99.0,'11111222,11111222,11144222' 
ADCP,ioos:station:wmo:42364:1,2007-12-03T04:00:00Z,29.0600,-88.0900,122.0,6.0,250.0,99.0,'11111222,11111222,11144222' 
ADCP,ioos:station:wmo:42364:1,2007-12-03T05:00:00Z,29.0600,-88.0900,122.0,4.0,250.0,99.0,'11111222,11111222,11144222' 
ADCP,ioos:station:wmo:42364:1,2007-12-03T06:00:00Z,29.0600,-88.0900,122.0,4.0,250.0,99.0,'11111222,11111222,11144222' 
ADCP,ioos:station:wmo:42364:1,2007-12-03T07:00:00Z,29.0600,-88.0900,122.0,5.0,250.0,99.0,'11111222,11111222,11144222' 
ADCP,ioos:station:wmo:42364:1,2007-12-03T08:00:00Z,29.0600,-88.0900,122.0,6.0,250.0,99.0,'11111222,11111222,11144222' 
ADCP,ioos:station:wmo:42364:1,2007-12-03T09:00:00Z,29.0600,-88.0900,122.0,4.0,250.0,99.0,'11111222,11111222,11144222' 
ADCP,ioos:station:wmo:42364:1,2007-12-03T10:00:00Z,29.0600,-88.0900,122.0,1.0,360.0,99.0,'11111222,11144222,11144222' 
ADCP,ioos:station:wmo:42364:1,2007-12-03T11:00:00Z,29.0600,-88.0900,122.0,2.0,100.0,99.0,'11111222,11111222,11144222' 
ADCP,ioos:station:wmo:42364:1,2007-12-03T12:00:00Z,29.0600,-88.0900,122.0,2.0,60.0,99.0,'11111222,11111222,11144222' 
ADCP,ioos:station:wmo:42364:1,2007-12-03T13:00:00Z,29.0600,-88.0900,122.0,0.0,0.0,99.0,'11111222,11111222,11144222' 
ADCP,ioos:station:wmo:42364:1,2007-12-03T14:00:00Z,29.0600,-88.0900,122.0,15.0,360.0,99.0,'11111222,11144222,11144222' 
ADCP,ioos:station:wmo:42364:1,2007-12-03T15:00:00Z,29.0600,-88.0900,122.0,8.0,340.0,99.0,'11111222,11111222,11144222' 
ADCP,ioos:station:wmo:42364:1,2007-12-03T16:00:00Z,29.0600,-88.0900,122.0,10.0,360.0,99.0,'11111222,11144222,11144222' 
ADCP,ioos:station:wmo:42364:1,2007-12-03T17:00:00Z,29.0600,-88.0900,122.0,6.0,360.0,99.0,'11111222,11144222,11144222' 
ADCP,ioos:station:wmo:42364:1,2007-12-03T18:00:00Z,29.0600,-88.0900,122.0,7.0,40.0,99.0,'11111222,11111222,11144222' 
ADCP,ioos:station:wmo:42364:1,2007-12-03T19:00:00Z,29.0600,-88.0900,122.0,6.0,350.0,99.0,'11111222,11111222,11144222' 
ADCP,ioos:station:wmo:42364:1,2007-12-03T20:00:00Z,29.0600,-88.0900,122.0,5.0,350.0,99.0,'11111222,11111222,11144222' 
ADCP,ioos:station:wmo:42364:1,2007-12-03T21:00:00Z,29.0600,-88.0900,122.0,4.0,360.0,99.0,'11111222,11144222,11144222' 
ADCP,ioos:station:wmo:42364:1,2007-12-03T22:00:00Z,29.0600,-88.0900,122.0,9.0,360.0,99.0,'11111222,11144222,11144222' 
ADCP,ioos:station:wmo:42364:1,2007-12-03T23:00:00Z,29.0600,-88.0900,122.0,10.0,20.0,99.0,'11111222,11111222,11144222' 
ADCP,ioos:station:wmo:42364:1,2007-12-04T00:00:00Z,29.0600,-88.0900,122.0,13.0,360.0,99.0,'11111222,11144222,11144222' 
ADCP,ioos:station:wmo:42364:1,2007-12-04T01:00:00Z,29.0600,-88.0900,122.0,8.0,10.0,99.0,'11111222,11111222,11144222' 
ADCP,ioos:station:wmo:42364:1,2007-12-04T02:00:00Z,29.0600,-88.0900,122.0,11.0,10.0,99.0,'11111222,11111222,11144222' 
ADCP,ioos:station:wmo:42364:1,2007-12-04T03:00:00Z,29.0600,-88.0900,122.0,17.0,10.0,99.0,'11111222,11111222,11144222' 
ADCP,ioos:station:wmo:42364:1,2007-12-04T04:00:00Z,29.0600,-88.0900,122.0,10.0,10.0,99.0,'11111222,11111222,11144222' 
ADCP,ioos:station:wmo:42364:1,2007-12-04T05:00:00Z,29.0600,-88.0900,122.0,11.0,30.0,99.0,'11111222,11111222,11144222' 
ADCP,ioos:station:wmo:42364:1,2007-12-04T06:00:00Z,29.0600,-88.0900,122.0,8.0,30.0,99.0,'11111222,11111222,11144222' 
ADCP,ioos:station:wmo:42364:1,2007-12-04T07:00:00Z,29.0600,-88.0900,122.0,8.0,30.0,99.0,'11111222,11111222,11144222' 
ADCP,ioos:station:wmo:42364:1,2007-12-04T08:00:00Z,29.0600,-88.0900,122.0,4.0,60.0,99.0,'11111222,11111222,11144222' 
ADCP,ioos:station:wmo:42364:1,2007-12-04T09:00:00Z,29.0600,-88.0900,122.0,7.0,40.0,99.0,'11111222,11111222,11144222' 
ADCP,ioos:station:wmo:42364:1,2007-12-04T10:00:00Z,29.0600,-88.0900,122.0,6.0,30.0,99.0,'11111222,11111222,11144222' 
ADCP,ioos:station:wmo:42364:1,2007-12-04T11:00:00Z,29.0600,-88.0900,122.0,9.0,40.0,99.0,'11111222,11111222,11144222' 
ADCP,ioos:station:wmo:42364:1,2007-12-04T12:00:00Z,29.0600,-88.0900,122.0,8.0,40.0,99.0,'11111222,11111222,11144222' 
ADCP,ioos:station:wmo:42364:1,2007-12-04T13:00:00Z,29.0600,-88.0900,122.0,5.0,40.0,99.0,'11111222,11111222,11144222' 
ADCP,ioos:station:wmo:42364:1,2007-12-04T14:00:00Z,29.0600,-88.0900,122.0,2.0,30.0,99.0,'11111222,11111222,11144222' 
ADCP,ioos:station:wmo:42364:1,2007-12-04T15:00:00Z,29.0600,-88.0900,122.0,1.0,40.0,99.0,'11111222,11111222,11144222' 
ADCP,ioos:station:wmo:42364:1,2007-12-04T16:00:00Z,29.0600,-88.0900,122.0,5.0,30.0,99.0,'11111222,11111222,11144222' 
ADCP,ioos:station:wmo:42364:1,2007-12-04T17:00:00Z,29.0600,-88.0900,122.0,4.0,40.0,99.0,'11111222,11111222,11144222' 
ADCP,ioos:station:wmo:42364:1,2007-12-04T18:00:00Z,29.0600,-88.0900,122.0,6.0,30.0,99.0,'11111222,11111222,11144222' 
ADCP,ioos:station:wmo:42364:1,2007-12-04T19:00:00Z,29.0600,-88.0900,122.0,6.0,40.0,99.0,'11111222,11111222,11144222' 
ADCP,ioos:station:wmo:42364:1,2007-12-04T20:00:00Z,29.0600,-88.0900,122.0,4.0,40.0,99.0,'11111222,11111222,11144222' 
ADCP,ioos:station:wmo:42364:1,2007-12-04T21:00:00Z,29.0600,-88.0900,122.0,3.0,30.0,99.0,'11111222,11111222,11144222' 
ADCP,ioos:station:wmo:42364:1,2007-12-04T22:00:00Z,29.0600,-88.0900,122.0,3.0,10.0,99.0,'11111222,11111222,11144222' 
ADCP,ioos:station:wmo:42364:1,2007-12-04T23:00:00Z,29.0600,-88.0900,122.0,3.0,10.0,99.0,'11111222,11111222,11144222' 
ADCP,ioos:station:wmo:42364:1,2007-12-05T00:00:00Z,29.0600,-88.0900,122.0,2.0,50.0,99.0,'11111222,11111222,11144222' 
ADCP,ioos:station:wmo:42364:1,2007-12-05T01:00:00Z,29.0600,-88.0900,122.0,4.0,50.0,99.0,'11111222,11111222,11144222' 
ADCP,ioos:station:wmo:42364:1,2007-12-05T02:00:00Z,29.0600,-88.0900,122.0,2.0,90.0,99.0,'11111222,11111222,11144222' 
ADCP,ioos:station:wmo:42364:1,2007-12-05T03:00:00Z,29.0600,-88.0900,122.0,3.0,180.0,99.0,'11111222,11111222,11144222' 
ADCP,ioos:station:wmo:42364:1,2007-12-05T04:00:00Z,29.0600,-88.0900,122.0,4.0,170.0,99.0,'11111222,11111222,11144222' 
ADCP,ioos:station:wmo:42364:1,2007-12-05T05:00:00Z,29.0600,-88.0900,122.0,5.0,200.0,99.0,'11111222,11111222,11144222' 
ADCP,ioos:station:wmo:42364:1,2007-12-05T06:00:00Z,29.0600,-88.0900,122.0,8.0,200.0,99.0,'11111222,11111222,11144222' 
ADCP,ioos:station:wmo:42364:1,2007-12-05T07:00:00Z,29.0600,-88.0900,122.0,9.0,220.0,99.0,'11111222,11111222,11144222' 
ADCP,ioos:station:wmo:42364:1,2007-12-05T08:00:00Z,29.0600,-88.0900,122.0,7.0,220.0,99.0,'11111222,11111222,11144222' 
ADCP,ioos:station:wmo:42364:1,2007-12-05T09:00:00Z,29.0600,-88.0900,122.0,8.0,230.0,99.0,'11111222,11111222,11144222' 
ADCP,ioos:station:wmo:42364:1,2007-12-05T10:00:00Z,29.0600,-88.0900,122.0,9.0,230.0,99.0,'11111222,11111222,11144222' 
ADCP,ioos:station:wmo:42364:1,2007-12-05T11:00:00Z,29.0600,-88.0900,122.0,7.0,260.0,99.0,'11111222,11111222,11144222' 
ADCP,ioos:station:wmo:42364:1,2007-12-05T12:00:00Z,29.0600,-88.0900,122.0,2.0,300.0,99.0,'11111222,11111222,11144222' 
ADCP,ioos:station:wmo:42364:1,2007-12-05T13:00:00Z,29.0600,-88.0900,122.0,5.0,270.0,99.0,'11111222,11111222,11144222' 
ADCP,ioos:station:wmo:42364:1,2007-12-05T14:00:00Z,29.0600,-88.0900,122.0,6.0,260.0,99.0,'11111222,11111222,11144222' 
ADCP,ioos:station:wmo:42364:1,2007-12-05T15:00:00Z,29.0600,-88.0900,122.0,0.0,0.0,99.0,'11111222,11111222,11144222' 
ADCP,ioos:station:wmo:42364:1,2007-12-05T16:00:00Z,29.0600,-88.0900,122.0,1.0,50.0,99.0,'11111222,11111222,11144222' 
ADCP,ioos:station:wmo:42364:1,2007-12-05T17:00:00Z,29.0600,-88.0900,122.0,0.0,0.0,99.0,'11111222,11111222,11144222' 
ADCP,ioos:station:wmo:42364:1,2007-12-05T18:00:00Z,29.0600,-88.0900,122.0,0.0,0.0,99.0,'11111222,11111222,11144222' 
ADCP,ioos:station:wmo:42364:1,2007-12-05T19:00:00Z,29.0600,-88.0900,122.0,1.0,120.0,99.0,'11111222,11111222,11144222' 
ADCP,ioos:station:wmo:42364:1,2007-12-05T20:00:00Z,29.0600,-88.0900,122.0,0.0,0.0,99.0,'11111222,11111222,11144222' 
ADCP,ioos:station:wmo:42364:1,2007-12-05T21:00:00Z,29.0600,-88.0900,122.0,4.0,250.0,99.0,'11111222,11111222,11144222' 
ADCP,ioos:station:wmo:42364:1,2007-12-05T22:00:00Z,29.0600,-88.0900,122.0,0.0,0.0,99.0,'11111222,11111222,11144222' 
ADCP,ioos:station:wmo:42364:1,2007-12-05T23:00:00Z,29.0600,-88.0900,122.0,1.0,340.0,99.0,'11111222,11111222,11144222' 
ADCP,ioos:station:wmo:42364:1,2007-12-06T00:00:00Z,29.0600,-88.0900,122.0,3.0,220.0,99.0,'11111222,11111222,11144222' 
ADCP,ioos:station:wmo:42364:1,2007-12-06T01:00:00Z,29.0600,-88.0900,122.0,3.0,230.0,99.0,'11111222,11111222,11144222' 
ADCP,ioos:station:wmo:42364:1,2007-12-06T02:00:00Z,29.0600,-88.0900,122.0,0.0,0.0,99.0,'11111222,11111222,11144222' 
ADCP,ioos:station:wmo:42364:1,2007-12-06T03:00:00Z,29.0600,-88.0900,122.0,0.0,0.0,99.0,'11111222,11111222,11144222' 
ADCP,ioos:station:wmo:42364:1,2007-12-06T04:00:00Z,29.0600,-88.0900,122.0,2.0,270.0,99.0,'11111222,11111222,11144222' 
ADCP,ioos:station:wmo:42364:1,2007-12-06T05:00:00Z,29.0600,-88.0900,122.0,0.0,0.0,99.0,'11111222,11111222,11144222' 
ADCP,ioos:station:wmo:42364:1,2007-12-06T06:00:00Z,29.0600,-88.0900,122.0,2.0,140.0,99.0,'11111222,11111222,11144222' 
ADCP,ioos:station:wmo:42364:1,2007-12-06T07:00:00Z,29.0600,-88.0900,122.0,1.0,170.0,99.0,'11111222,11111222,11144222' 
ADCP,ioos:station:wmo:42364:1,2007-12-06T08:00:00Z,29.0600,-88.0900,122.0,4.0,10.0,99.0,'11111222,11111222,11144222' 
ADCP,ioos:station:wmo:42364:1,2007-12-06T09:00:00Z,29.0600,-88.0900,122.0,4.0,350.0,99.0,'11111222,11111222,11144222' 
ADCP,ioos:station:wmo:42364:1,2007-12-06T10:00:00Z,29.0600,-88.0900,122.0,3.0,340.0,99.0,'11111222,11111222,11144222' 
ADCP,ioos:station:wmo:42364:1,2007-12-06T11:00:00Z,29.0600,-88.0900,122.0,4.0,10.0,99.0,'11111222,11111222,11144222' 
ADCP,ioos:station:wmo:42364:1,2007-12-06T12:00:00Z,29.0600,-88.0900,122.0,13.0,40.0,99.0,'11111222,11111222,11144222' 
ADCP,ioos:station:wmo:42364:1,2007-12-06T13:00:00Z,29.0600,-88.0900,122.0,9.0,50.0,99.0,'11111222,11111222,11144222' 
ADCP,ioos:station:wmo:42364:1,2007-12-06T14:00:00Z,29.0600,-88.0900,122.0,8.0,70.0,99.0,'11111222,11111222,11144222' 
ADCP,ioos:station:wmo:42364:1,2007-12-06T15:00:00Z,29.0600,-88.0900,122.0,9.0,50.0,99.0,'11111222,11111222,11144222' 
ADCP,ioos:station:wmo:42364:1,2007-12-06T16:00:00Z,29.0600,-88.0900,122.0,8.0,60.0,99.0,'11111222,11111222,11144222' 
ADCP,ioos:station:wmo:42364:1,2007-12-06T17:00:00Z,29.0600,-88.0900,122.0,9.0,70.0,99.0,'11111222,11111222,11144222' 
ADCP,ioos:station:wmo:42364:1,2007-12-06T18:00:00Z,29.0600,-88.0900,122.0,8.0,70.0,99.0,'11111222,11111222,11144222' 
ADCP,ioos:station:wmo:42364:1,2007-12-06T19:00:00Z,29.0600,-88.0900,122.0,6.0,90.0,99.0,'11111222,11111222,11144222' 
ADCP,ioos:station:wmo:42364:1,2007-12-06T20:00:00Z,29.0600,-88.0900,122.0,5.0,100.0,99.0,'11111222,11111222,11144222' 
ADCP,ioos:station:wmo:42364:1,2007-12-06T21:00:00Z,29.0600,-88.0900,122.0,6.0,100.0,99.0,'11111222,11111222,11144222' 
ADCP,ioos:station:wmo:42364:1,2007-12-06T22:00:00Z,29.0600,-88.0900,122.0,7.0,100.0,99.0,'11111222,11111222,11144222' 
ADCP,ioos:station:wmo:42364:1,2007-12-06T23:00:00Z,29.0600,-88.0900,122.0,7.0,110.0,99.0,'11111222,11111222,11144222' 
ADCP,ioos:station:wmo:42364:1,2007-12-07T00:00:00Z,29.0600,-88.0900,122.0,6.0,90.0,99.0,'11111222,11111222,11144222' 
ADCP,ioos:station:wmo:42364:1,2007-12-07T01:00:00Z,29.0600,-88.0900,122.0,7.0,90.0,99.0,'11111222,11111222,11144222' 
ADCP,ioos:station:wmo:42364:1,2007-12-07T02:00:00Z,29.0600,-88.0900,122.0,7.0,110.0,99.0,'11111222,11111222,11144222' 
ADCP,ioos:station:wmo:42364:1,2007-12-07T03:00:00Z,29.0600,-88.0900,122.0,7.0,120.0,99.0,'11111222,11111222,11144222' 
ADCP,ioos:station:wmo:42364:1,2007-12-07T04:00:00Z,29.0600,-88.0900,122.0,8.0,110.0,99.0,'11111222,11111222,11144222' 
ADCP,ioos:station:wmo:42364:1,2007-12-07T05:00:00Z,29.0600,-88.0900,122.0,8.0,130.0,99.0,'11111222,11111222,11144222' 
ADCP,ioos:station:wmo:42364:1,2007-12-07T06:00:00Z,29.0600,-88.0900,122.0,8.0,150.0,99.0,'11111222,11111222,11144222' 
ADCP,ioos:station:wmo:42364:1,2007-12-07T07:00:00Z,29.0600,-88.0900,122.0,8.0,180.0,99.0,'11111222,11111222,11144222' 
ADCP,ioos:station:wmo:42364:1,2007-12-07T08:00:00Z,29.0600,-88.0900,122.0,8.0,170.0,99.0,'11111222,11111222,11144222' 
ADCP,ioos:station:wmo:42364:1,2007-12-07T09:00:00Z,29.0600,-88.0900,122.0,8.0,170.0,99.0,'11111222,11111222,11144222' 
ADCP,ioos:station:wmo:42364:1,2007-12-07T10:00:00Z,29.0600,-88.0900,122.0,7.0,170.0,99.0,'11111222,11111222,11144222' 
ADCP,ioos:station:wmo:42364:1,2007-12-07T11:00:00Z,29.0600,-88.0900,122.0,8.0,180.0,99.0,'11111222,11111222,11144222' 
ADCP,ioos:station:wmo:42364:1,2007-12-07T12:00:00Z,29.0600,-88.0900,122.0,7.0,170.0,99.0,'11111222,11111222,11144222' 
ADCP,ioos:station:wmo:42364:1,2007-12-07T13:00:00Z,29.0600,-88.0900,122.0,8.0,180.0,99.0,'11111222,11111222,11144222' 
ADCP,ioos:station:wmo:42364:1,2007-12-07T14:00:00Z,29.0600,-88.0900,122.0,8.0,180.0,99.0,'11111222,11111222,11144222' 
ADCP,ioos:station:wmo:42364:1,2007-12-07T15:00:00Z,29.0600,-88.0900,122.0,8.0,180.0,99.0,'11111222,11111222,11144222' 
ADCP,ioos:station:wmo:42364:1,2007-12-07T16:00:00Z,29.0600,-88.0900,122.0,8.0,200.0,99.0,'11111222,11111222,11144222' 
ADCP,ioos:station:wmo:42364:1,2007-12-07T17:00:00Z,29.0600,-88.0900,122.0,7.0,200.0,99.0,'11111222,11111222,11144222' 
ADCP,ioos:station:wmo:42364:1,2007-12-07T18:00:00Z,29.0600,-88.0900,122.0,6.0,200.0,99.0,'11111222,11111222,11144222' 
ADCP,ioos:station:wmo:42364:1,2007-12-07T19:00:00Z,29.0600,-88.0900,122.0,7.0,200.0,99.0,'11111222,11111222,11144222' 
ADCP,ioos:station:wmo:42364:1,2007-12-07T20:00:00Z,29.0600,-88.0900,122.0,6.0,200.0,99.0,'11111222,11111222,11144222' 
ADCP,ioos:station:wmo:42364:1,2007-12-07T21:00:00Z,29.0600,-88.0900,122.0,5.0,190.0,99.0,'11111222,11111222,11144222' 
ADCP,ioos:station:wmo:42364:1,2007-12-07T22:00:00Z,29.0600,-88.0900,122.0,4.0,180.0,99.0,'11111222,11111222,11144222' 
ADCP,ioos:station:wmo:42364:1,2007-12-07T23:00:00Z,29.0600,-88.0900,122.0,4.0,180.0,99.0,'11111222,11111222,11144222' 
ADCP,ioos:station:wmo:42364:1,2007-12-08T00:00:00Z,29.0600,-88.0900,122.0,4.0,160.0,99.0,'11111222,11111222,11144222' 
ADCP,ioos:station:wmo:42364:1,2007-12-08T01:00:00Z,29.0600,-88.0900,122.0,5.0,160.0,99.0,'11111222,11111222,11144222' 
ADCP,ioos:station:wmo:42364:1,2007-12-08T02:00:00Z,29.0600,-88.0900,122.0,7.0,140.0,99.0,'11111222,11111222,11144222' 
ADCP,ioos:station:wmo:42364:1,2007-12-08T03:00:00Z,29.0600,-88.0900,122.0,7.0,150.0,99.0,'11111222,11111222,11144222' 
ADCP,ioos:station:wmo:42364:1,2007-12-08T04:00:00Z,29.0600,-88.0900,122.0,7.0,150.0,99.0,'11111222,11111222,11144222' 
ADCP,ioos:station:wmo:42364:1,2007-12-08T05:00:00Z,29.0600,-88.0900,122.0,8.0,160.0,99.0,'11111222,11111222,11144222' 
ADCP,ioos:station:wmo:42364:1,2007-12-08T06:00:00Z,29.0600,-88.0900,122.0,9.0,160.0,99.0,'11111222,11111222,11144222' 
ADCP,ioos:station:wmo:42364:1,2007-12-08T07:00:00Z,29.0600,-88.0900,122.0,9.0,170.0,99.0,'11111222,11111222,11144222' 
ADCP,ioos:station:wmo:42364:1,2007-12-08T08:00:00Z,29.0600,-88.0900,122.0,10.0,180.0,99.0,'11111222,11111222,11144222' 
ADCP,ioos:station:wmo:42364:1,2007-12-08T09:00:00Z,29.0600,-88.0900,122.0,9.0,180.0,99.0,'11111222,11111222,11144222' 
ADCP,ioos:station:wmo:42364:1,2007-12-08T10:00:00Z,29.0600,-88.0900,122.0,6.0,180.0,99.0,'11111222,11111222,11144222' 
ADCP,ioos:station:wmo:42364:1,2007-12-08T11:00:00Z,29.0600,-88.0900,122.0,6.0,190.0,99.0,'11111222,11111222,11144222' 
ADCP,ioos:station:wmo:42364:1,2007-12-08T12:00:00Z,29.0600,-88.0900,122.0,4.0,190.0,99.0,'11111222,11111222,11144222' 
ADCP,ioos:station:wmo:42364:1,2007-12-08T13:00:00Z,29.0600,-88.0900,122.0,3.0,180.0,99.0,'11111222,11111222,11144222' 
ADCP,ioos:station:wmo:42364:1,2007-12-08T14:00:00Z,29.0600,-88.0900,122.0,2.0,160.0,99.0,'11111222,11111222,11144222' 
ADCP,ioos:station:wmo:42364:1,2007-12-08T15:00:00Z,29.0600,-88.0900,122.0,4.0,140.0,99.0,'11111222,11111222,11144222' 
ADCP,ioos:station:wmo:42364:1,2007-12-08T16:00:00Z,29.0600,-88.0900,122.0,5.0,140.0,99.0,'11111222,11111222,11144222' 
ADCP,ioos:station:wmo:42364:1,2007-12-08T17:00:00Z,29.0600,-88.0900,122.0,8.0,120.0,99.0,'11111222,11111222,11144222' 
ADCP,ioos:station:wmo:42364:1,2007-12-08T18:00:00Z,29.0600,-88.0900,122.0,9.0,130.0,99.0,'11111222,11111222,11144222' 
ADCP,ioos:station:wmo:42364:1,2007-12-08T19:00:00Z,29.0600,-88.0900,122.0,7.0,130.0,99.0,'11111222,11111222,11144222' 
ADCP,ioos:station:wmo:42364:1,2007-12-08T20:00:00Z,29.0600,-88.0900,122.0,9.0,140.0,99.0,'11111222,11111222,11144222' 
ADCP,ioos:station:wmo:42364:1,2007-12-08T21:00:00Z,29.0600,-88.0900,122.0,7.0,140.0,99.0,'11111222,11111222,11144222' 
ADCP,ioos:station:wmo:42364:1,2007-12-08T22:00:00Z,29.0600,-88.0900,122.0,7.0,130.0,99.0,'11111222,11111222,11144222' 
ADCP,ioos:station:wmo:42364:1,2007-12-08T23:00:00Z,29.0600,-88.0900,122.0,8.0,130.0,99.0,'11111222,11111222,11144222' 
ADCP,ioos:station:wmo:42364:1,2007-12-09T00:00:00Z,29.0600,-88.0900,122.0,7.0,140.0,99.0,'11111222,11111222,11144222' 
ADCP,ioos:station:wmo:42364:1,2007-12-09T01:00:00Z,29.0600,-88.0900,122.0,7.0,130.0,99.0,'11111222,11111222,11144222' 
ADCP,ioos:station:wmo:42364:1,2007-12-09T02:00:00Z,29.0600,-88.0900,122.0,8.0,140.0,99.0,'11111222,11111222,11144222' 
ADCP,ioos:station:wmo:42364:1,2007-12-09T03:00:00Z,29.0600,-88.0900,122.0,7.0,130.0,99.0,'11111222,11111222,11144222' 
ADCP,ioos:station:wmo:42364:1,2007-12-09T04:00:00Z,29.0600,-88.0900,122.0,9.0,130.0,99.0,'11111222,11111222,11144222' 
ADCP,ioos:station:wmo:42364:1,2007-12-09T05:00:00Z,29.0600,-88.0900,122.0,10.0,140.0,99.0,'11111222,11111222,11144222' 
ADCP,ioos:station:wmo:42364:1,2007-12-09T06:00:00Z,29.0600,-88.0900,122.0,9.0,140.0,99.0,'11111222,11111222,11144222' 
ADCP,ioos:station:wmo:42364:1,2007-12-09T07:00:00Z,29.0600,-88.0900,122.0,10.0,130.0,99.0,'11111222,11111222,11144222' 
ADCP,ioos:station:wmo:42364:1,2007-12-09T08:00:00Z,29.0600,-88.0900,122.0,6.0,150.0,99.0,'11111222,11111222,11144222' 